User: anonymous   Login
Location: Unspecified
(0.0000°N, 0.0000°E)
Time: 00:08:50
(UTC+00:00)
Language:

DNEPR OBJECT AD - Orbit

View from above orbital plane
View from above orbital plane
View from above satellite
View from above satellite

Ground track
Ground track

The orbit data is extracted from the following two-line orbital elements,

1 39443U 13066AD  17264.82536455  .00000510  00000-0  52493-4 0  9990
2 39443  97.6468 327.8134 0023342 250.6039 109.2658 14.94333340207398
Epoch (UTC): 21 September 2017 19:48:31
Eccentricity: 0.0023342
inclination: 97.6468°
perigee height: 568 km
apogee height: 601 km
right ascension of ascending node: 327.8134°
argument of perigee: 250.6039°
revolutions per day: 14.94333340
mean anomaly at epoch: 109.2658°
orbit number at epoch: 20739

The dashed part of the orbit path shows where the satellite is in the earth's shadow,  

DLR